Regional Weather Roundup
Issued by NWS Pendleton, OR

Home | Current Version | Previous Version | Text Only | Print | Product List | Glossary On
Versions: 1 2 3 4 5 6 7 8 9 10 11 12 13 14 15 16 17 18 19 20 21 22 23 24 25 26 27 28 29 30 31 32 33 34 35 36 37 38 39 40 41 42 43 44 45 46 47 48 49 50
905
ASUS46 KPDT 111525
RWRPDT
PENDLETON REGIONAL WEATHER ROUNDUP
NATIONAL WEATHER SERVICE PENDLETON OREGON
700 AM PST THU FEB 11 2016

NOTE: FAIR INDICATES FEW OR NO CLOUDS BELOW 12,000 FEET WITH NO
SIGNIFICANT WEATHER AND/OR OBSTRUCTIONS TO VISIBILITY.

# INDICATES UNOFFICIAL STATION AND DATA

WAZ520-111610-
EAST SLOPES OF WASHINGTON CASCADES

CITY            SKY/WX      TMP DP  RH  WIND    PRES   REMARKS
#BUMPING DAM    N/A         31  N/A N/A S2      N/A
#CLE ELUM HS    N/A         34  32  92  CALM    30.23F
#CLE ELUM 2NW   N/A         32  32  100 SW3     N/A
#CLE ELUM LAKE  N/A         36  34  92  E1      30.28F
#CLIFFDEL 2NW   N/A         32  31  96  CALM    N/A
#GLENWOOD       N/A         35  34  96  CALM    30.30R
#MANASTASH CYN  N/A         34  30  85  CALM    30.22F
#NELSON 3SW     N/A         33  31  92  CALM    30.52F
#NILE           N/A         33  32  96  CALM    29.59F
#RONALD 2NW     N/A         35  N/A N/A CALM    30.10F
#TEANAWAY 4NE   N/A         34  34  100 CALM    N/A
#TROUT LAKE 1NE N/A         36  35  96  CALM    30.30R
#TROUT LAKE 1E  N/A         34  34  100 CALM    30.22R
$$

WAZ521-111610-
SIMCOE HIGHLANDS

CITY            SKY/WX      TMP DP  RH  WIND    PRES   REMARKS
#BICKLETON HS   N/A         44  33  65  NE5     N/A
#CENTERVILLE 1SWN/A         41  39  93  CALM    30.24R
#GOLDENDALE     N/A         43  40  89  NW2     N/A
#GOLDENDALE 1NE N/A         44  38  79  SW1     N/A
#GOODNOE HILLS  N/A         42  38  86  CALM    30.15R
#LYLE 6NE       N/A         43  41  93  CALM    30.24S
$$

WAZ026-111610-
KITTITAS VALLEY

CITY            SKY/WX      TMP DP  RH  WIND    PRES   REMARKS
ELLENSBURG AP   MXD PCPN    32  29  89  CALM    30.29F FOG
#ELLENSBURG CWU N/A         30  28  92  CALM    30.32F
#ELLENSBURG 3NE N/A         30  29  96  CALM    30.27F
#ELLENSBURG     N/A         32  32  100 CALM    N/A
#ELLENSBURG 1E  N/A         29  N/A N/A CALM    N/A
#KITTITAS 4N    N/A         31  28  88  SW3     30.30F
#KITTITAS 3S    N/A         29  28  96  CALM    30.38F
#THORP 6N       N/A         36  34  92  SW2     30.34F
$$

WAZ027-111610-
YAKIMA VALLEY

CITY            SKY/WX      TMP DP  RH  WIND    PRES   REMARKS
SUNNYSIDE AP    CLOUDY      37  36  96  CALM    30.30S FOG
YAKIMA AIRPORT  LGT RAIN    40  34  79  NW7     30.30S
YAKIMA-VAGABOND LGT RAIN SH 39  36  89  W1      30.27S
#DONALD 2NE     N/A         42  29  60  CALM    29.13S
#GRANDVIEW      N/A         39  36  89  CALM    30.34R
#MABTON         N/A         39  38  96  CALM    30.30S
#MOXEE 2E       N/A         37  34  89  CALM    30.25S
#NACHES 2SW     N/A         40  37  89  CALM    30.29S
#TERRACE HTS    N/A         38  36  92  CALM    30.30S
#TOPPENISH      N/A         39  37  92  CALM    30.23F
#WEST VALLEY    N/A         38  35  89  CALM    30.32S
#W YAKIMA       N/A         39  36  89  CALM    30.33F
#WHITE SWAN 5E  N/A         37  36  96  CALM    30.33S
#WILEY CITY 3W  N/A         36  31  82  CALM    30.26S
$$

WAZ028-111610-
LOWER COLUMBIA BASIN...WASHINGTON

CITY            SKY/WX      TMP DP  RH  WIND    PRES   REMARKS
HANFORD         CLOUDY      40  35  82  NW12    30.30S WCI 33
PASCO           MOCLDY      39  36  89  W6      30.33R
PROSSER AWOS    N/A         39  37  92  S1      30.34R
RICHLAND AWOS   CLOUDY      40  38  92  CALM    30.33R
#CONNELL 5N     N/A         37  36  96  N6      30.30F
#ELTOPIA 6NW    N/A         37  36  96  NW9     29.26R
#KAHLOTUS       N/A         37  35  92  S7      30.30F
#KENNEWICK 3S   N/A         39  36  89  CALM    30.34R
#PATERSON       N/A         43  39  86  CALM    30.28R
#PROSSER        N/A         39  36  89  SW2     30.32R
#SAGEMOOR 2W    N/A         38  36  92  N8      30.16R
#TOUCHET 2S     N/A         40  38  92  NW2     30.30R
#WEST PASCO     N/A         40  37  89  NW1     30.35R
$$

WAZ029-111610-
FOOTHILLS OF THE BLUES...WASHINGTON

CITY            SKY/WX      TMP DP  RH  WIND    PRES   REMARKS
WALLA WALLA AP  CLOUDY      41  38  89  S6      30.26F
#CLYDE 6NW      N/A         43  40  89  E3      30.30F
#DAYTON SCHOOL  N/A         44  36  73  CALM    30.26S
#LOWDEN 2SE     N/A         39  37  92  W5      30.27R
#PLEASANT VIEW 1N/A         36  34  92  N1      30.34F
#PRESCOTT       N/A         43  41  93  CALM    30.28S
#WHITMAN COLLEGEN/A         41  38  89  SW2     30.34S
#WAITSBURG 5S   N/A         44  41  89  CALM    30.37F
#WAITSBURG 8N   N/A         44  24  45  E2      30.09F
#WALLA WALLA 5E N/A         41  39  93  CALM    N/A
#WALLA WALLA U  N/A         40  38  92  S5      30.31S
#WHITMAN MISSIONN/A         40  38  92  SW1     30.33R
$$

WAZ030-111610-
BLUE MOUNTAINS...WASHINGTON

CITY            SKY/WX      TMP DP  RH  WIND    PRES   REMARKS
#DIXIE 5SE      N/A         49  39  68  E8      30.17F
#SKI BLUEWOOD   N/A         37  33  85  CALM    30.26R
$$

ORZ009-041-WAZ024-111610-
COLUMBIA RIVER GORGE

CITY            SKY/WX      TMP DP  RH  WIND    PRES   REMARKS
HOOD RIVER AP   CLOUDY      43  41  93  CALM    30.28R
THE DALLES AP   CLOUDY      42  39  89  CALM    30.28F
#ARLINGTON AIRPON/A         42  39  89  E1      30.30R
#ARLINGTON HS   N/A         42  39  89  SW2     30.20S
#CELILO DOT     N/A         44  38  79  SE9     N/A
#LYLE           N/A         44  41  89  CALM    30.30R
#MARYHILL 2W    N/A         44  42  93  CALM    N/A
#MOSIER 1S      N/A         43  38  82  CALM    30.29S
#MURDOCK        N/A         43  41  93  SE1     30.27S
#RUFUS DOT      N/A         44  40  86  NE2     N/A

$$

ORZ510-111610-
NORTH CENTRAL OREGON

CITY            SKY/WX      TMP DP  RH  WIND    PRES   REMARKS
#CHENOWITH 1W   N/A         43  41  93  E6      N/A
#COW CYN RST AREN/A         45  37  73  N2      N/A
#GRASS VALLEY 1SN/A         41  39  93  CALM    30.30R
#KENT DOT       N/A         42  36  79  N1      N/A
#MAUPIN SCHOOL  N/A         42  39  89  CALM    30.27F
#MORO SCHOOL    N/A         41  41  100 CALM    30.24S
#SHANIKO 4NW    N/A         43  38  82  E5      30.21F
#TYGH VALLEY 2NEN/A         42  39  89  CALM    30.27S
#WAPANITIA AIRPON/A         41  39  93  CALM    30.29S
#WASCO DOT      N/A         42  39  89  NW6     N/A
#WASCO AIRPORT  N/A         43  39  86  S1      N/A
#WASCO 5NE      N/A         42  39  89  CALM    30.27F
$$

ORZ511-111610-
CENTRAL OREGON

CITY            SKY/WX      TMP DP  RH  WIND    PRES   REMARKS
BEND AIRPORT    CLOUDY      39  34  82  CALM    30.22S
MADRAS AIRPORT  CLOUDY      41  39  93  CALM    30.25S
PRINEVILLE AP   CLOUDY      41  36  82  S5      30.23S
REDMOND AIRPORT MOCLDY      38  34  85  CALM    30.22F
#ASHWOOD SCHOOL N/A         41  37  86  CALM    30.18R
#BEND 6E        N/A         40  30  67  CALM    30.23R
#BEND 1SW       N/A         37  33  85  CALM    N/A
#BEND-KIM LN    N/A         40  34  79  CALM    30.20R
#LAKE BILLY CHINN/A         42  N/A N/A CALM    30.28F
#MADRAS         N/A         41  38  89  S2      N/A
#POWELL BUTTE 3EN/A         43  34  70  SE2     N/A
#PRINEVILLE 3N  N/A         40  37  89  CALM    30.23S
#WARM SPRINGS   N/A         42  40  93  CALM    30.21S

$$


ORZ509-111610-
EAST SLOPES OF OREGON CASCADES

CITY            SKY/WX      TMP DP  RH  WIND    PRES   REMARKS
SISTERS AWOS    N/A         36  32  85  CALM    30.18S
#BLUE BOX PASS  N/A         41  N/A N/A CALM    N/A
#BLACK BUTTE RNCN/A         N/A N/A N/A S2      30.26F
#CAMP SHERMAN   N/A         33  30  89  CALM    30.37R
#LA PINE 4NW    N/A         33  28  82  CALM    30.29F
#LAVA BUTTE DOT N/A         37  30  75  CALM    N/A
#SISTERS AIRPOR N/A         35  35  100 CALM    30.17S
#SISTERS ODOT   N/A         36  N/A N/A CALM    N/A
#SISTERS 1NW    N/A         36  33  89  N5      N/A
#SISTERS 3N     N/A         34  28  78  CALM    30.21S
#SUNRIVER       N/A         35  32  89  CALM    30.29S
#SUTTLE LK DOT  N/A         30  30  100 CALM    N/A
#TUMALO 3W      N/A         42  34  73  NW3     30.09S
#WANOGA BUTTE D N/A         41  25  53  CALM    N/A

$$

ORZ044-111610-
LOWER COLUMBIA BASIN...OREGON

CITY            SKY/WX      TMP DP  RH  WIND    PRES   REMARKS
HERMISTON       CLOUDY      45  39  79  NE9     30.26S
#BOARDMAN SCHOOLN/A         41  39  93  N1      30.29R
#BOARDMAN 8SW   N/A         40  39  96  CALM    30.29R
#ECHO 8SW       N/A         41  40  96  CALM    30.27S
#I-84 EX 198 DOTN/A         46  37  71  N3      N/A
#IONE SCHOOL    N/A         42  27  55  CALM    30.22S
#IRRIGON 4NW    N/A         41  41  100 SE6     N/A
#UMATILLA SCHOOLN/A         41  41  100 S2      30.28R
#UMATILLA       N/A         44  38  79  E5      30.22S
$$

ORZ507-111610-
NORTHERN FOOTHILLS OF THE BLUES

CITY            SKY/WX      TMP DP  RH  WIND    PRES   REMARKS
PENDLETON AIRPT MOCLDY      45  36  70  NE10    30.23S
#ADAMS 3WNW     N/A         43  39  86  E5      30.27S
#ATHENA         N/A         40  37  89  NE3     30.29F
#CAYUSE         N/A         51  35  54  NE7     30.24S
#HELIX SCHOOL   N/A         44  39  82  N7      30.26F
#HELIX 3N       N/A         41  38  89  N7      30.21S
#HOLDMAN 5SE    N/A         44  40  86  NE2     30.22S
#HOLDMAN 6E     N/A         41  38  89  S7      30.07F
#M-F GROVE ELEM N/A         40  35  82  CALM    30.25S
#M-FREEWATER 5SEN/A         41  37  86  CALM    30.25
#PENDLETON DNTN N/A         43  37  79  CALM    30.25S
#PDT AQUATIC CTRN/A         43  36  76  SW2     30.22S
#PDT SUNRIDGE   N/A         42  38  86  CALM    30.26R
#PENDLETON 7NW  N/A         44  38  79  S5      32.08S
#PILOT ROCK     N/A         44  33  65  CALM    30.24R
#TUTUILLA       N/A         41  37  86  CALM    30.27R
#UMAPINE 2E     N/A         40  38  92  SW1     30.26S
#WESTON SCHOOL  N/A         40  33  76  CALM    30.20S

$$

ORZ508-111610-
SOUTHERN FOOTHILLS OF THE BLUES

CITY            SKY/WX      TMP DP  RH  WIND    PRES   REMARKS
LEXINGTON       MOCLDY      41  39  93  CALM    30.28R FOG
#CONDON SCHOOL  N/A         42  39  89  N7      30.17R
#CONDON 5W      N/A         42  36  79  NE10    30.20S
#FOSSIL SCHOOL  N/A         43  37  79  CALM    30.16R
#HEPPNER EOC    N/A         42  38  86  NW2     30.19R
#LEXINGTON 2SE  N/A         42  38  86  NW3     30.23R
#MIKKALO        N/A         41  38  89  E5      30.33S
#OLEX 4N        N/A         42  40  93  E2      30.24S
#RUGGS 5NE      N/A         43  38  82  SW1     30.40R

$$

ORZ502-503-111610-
BLUE MOUNTAINS

CITY            SKY/WX      TMP DP  RH  WIND    PRES   REMARKS
MEACHAM         CLOUDY      37  29  72  CALM    30.26S
#BATTLE MTN DOT N/A         37  36  96  SE9     N/A
#LADD CYN SMT   N/A         32  27  82  SE14    N/A    WCI 22
#LADD CREEK ODOTN/A         34  28  78  S10     N/A
#LONG CREEK HS  N/A         39  38  96  CALM    N/A
#N POWDER DOT   N/A         31  30  96  CALM    N/A
#PIKES PEAK     N/A         49  36  61  CALM    27.99S
#TOLLGATE       N/A         33  29  85  CALM    30.09F
#TROY SCHOOL    N/A         39  35  85  CALM    30.24S
#UKIAH          N/A         34  32  92  CALM    30.26S
#WESTON 4E      N/A         43  31  62  E14     30.22F WCI 36
$$

ORZ505-111610-
JOHN DAY BASIN

CITY            SKY/WX      TMP DP  RH  WIND    PRES   REMARKS
JOHN DAY        CLOUDY      46  33  60  E8      30.26S
#DAYVILLE SCHOOLN/A         43  35  73  CALM    30.21S
#MITCHELL       N/A         43  38  82  CALM    30.37R
#MITCHELL 8NW   N/A         44  34  68  CALM    30.41R
#MONUMENT HS    N/A         39  34  82  SE1     30.17R
#MT. VERNON 5SE N/A         49  30  48  SW3     30.21S
#SPRAY SCHOOL   N/A         44  N/A N/A CALM    N/A
#WINLOCK        N/A         43  33  67  CALM    30.19S
$$

ORZ506-111610-
OCHOCO AND JOHN DAY HIGHLANDS

CITY            SKY/WX      TMP DP  RH  WIND    PRES   REMARKS
#HORSE RIDGE DO N/A         39  31  73  S1      N/A
#KEYES SMT DOT  N/A         41  31  67  E7      N/A
#PAULINA SCHOOL N/A         47  33  58  CALM    30.19F
#PINE MTN OBS   N/A         43  25  49  S12     N/A    WCI 37
#PRAIRIE CITY   N/A         39  35  85  CALM    30.23R
#SENECA         N/A         32  N/A N/A CALM    N/A
#SENECA 9NW     N/A         31  29  92  CALM    30.38F
$$

ORZ049-111610-
GRANDE RONDE VALLEY

CITY            SKY/WX      TMP DP  RH  WIND    PRES   REMARKS
LA GRANDE       MOCLDY      36  28  72  N6      30.32F
#COVE           N/A         36  33  89  CALM    30.33F
#COVE SCHOOL    N/A         35  31  85  CALM    30.32F
#COVE 6NW       N/A         39  31  73  S8      30.26S
#ELGIN 3N       N/A         32  26  78  CALM    30.29F
#ELGIN 1E       N/A         33  29  85  CALM    N/A
#IMBLER SCHOOL  N/A         34  30  85  N2      30.28F
#ISLAND CITY 4N N/A         49  48  96  CALM    30.16S
#LADD CYN DOT   N/A         37  31  79  S18     N/A    WCI 27
#UNION 1S       N/A         36  31  82  S14     30.31F WCI 27
$$

ORZ050-111610-
WALLOWA COUNTY

CITY            SKY/WX      TMP DP  RH  WIND    PRES   REMARKS
JOSEPH AIRPORT  CLOUDY      N/A N/A N/A CALM    30.30F FOG
#ENTERPRISE AP  N/A         30  28  92  CALM    30.20F
#ENTERPRISE HS  N/A         32  30  92  CALM    30.29S
#IMNAHA SCHOOL  N/A         44  35  70  S1      30.29F
#JOSEPH 3N      N/A         29  26  88  CALM    30.28F
#JOSEPH 3W      N/A         32  28  85  CALM    30.08F
#LOSTINE        N/A         29  28  96  CALM    30.24F
#MT HOWARD 8000 N/A         40  30  67  CALM    30.31S
#PROMISE 1S     N/A         34  29  82  CALM    30.48F
#WALLOWA SCHOOL N/A         29  28  96  CALM    30.29S



$$



USA.gov is the U.S. government's official web portal to all federal, state and local government web resources and services.